Location: Tofino
(49.1330°N, 125.9000°W)
Time: 07:10:13
(UTC-08:00)

ISS - Visible Passes

Search period start: 14 December 2017 00:00
Search period end: 24 December 2017 00:00
Orbit: 403 x 406 km, 51.6° (Epoch: 15 December)

Date Brightness Start Highest point End Pass type
(mag) Time Alt. Az. Time Alt. Az. Time Alt. Az.
14 Dec -3.1 17:27:56 10° WNW 17:31:10 55° SSW 17:34:23 10° SE visible
14 Dec -0.7 19:05:56 10° WSW 19:07:04 11° SW 19:08:11 10° SSW visible
15 Dec -1.0 18:12:41 10° W 18:15:05 19° SW 18:17:28 10° S visible
16 Dec -1.7 17:20:05 10° W 17:23:01 30° SW 17:25:55 10° SSE visible
18 Dec -0.6 17:12:36 10° W 17:14:41 16° SW 17:16:46 10° S visible
